Stündliche Wetter Kyzyl Oktyabr

Heute, 16 Mai, Sonntag

Zeit Temperatur Niederschläge Wind Luftdruck Luftfeuchtigkeit
00:00 +20°C° 0 mm 3 m/S 757 mmHg 57%
01:00 +20°C° 0 mm 2 m/S 757 mmHg 57%
02:00 +19°C° 0 mm 2 m/S 757 mmHg 57%
03:00 +19°C° 0 mm 2 m/S 758 mmHg 58%
04:00 +18°C° 0 mm 2 m/S 758 mmHg 58%
05:00 +19°C° 0 mm 2 m/S 758 mmHg 58%
06:00 +21°C° 0 mm 2 m/S 758 mmHg 58%
07:00 +22°C° 0 mm 3 m/S 758 mmHg 58%
08:00 +25°C° 0 mm 3 m/S 758 mmHg 52%
09:00 +27°C° 0 mm 4 m/S 758 mmHg 46%
10:00 +29°C° 0 mm 4 m/S 758 mmHg 41%
11:00 +30°C° 0 mm 5 m/S 758 mmHg 37%
12:00 +32°C° 0 mm 5 m/S 757 mmHg 33%
13:00 +33°C° 0 mm 5 m/S 757 mmHg 29%
14:00 +33°C° 0 mm 5 m/S 757 mmHg 31%
15:00 +33°C° 0 mm 5 m/S 757 mmHg 32%
16:00 +33°C° 0 mm 5 m/S 757 mmHg 33%
17:00 +30°C° 0 mm 4 m/S 757 mmHg 39%
18:00 +28°C° 0 mm 4 m/S 756 mmHg 45%
19:00 +27°C° 0 mm 3 m/S 756 mmHg 50%
20:00 +26°C° 0 mm 3 m/S 756 mmHg 50%
21:00 +24°C° 0 mm 3 m/S 756 mmHg 50%
22:00 +22°C° 0 mm 3 m/S 756 mmHg 50%
23:00 +21°C° 0 mm 3 m/S 756 mmHg 50%

Morgen, 17 Mai, Montag

Zeit Temperatur Niederschläge Wind Luftdruck Luftfeuchtigkeit
00:00 +21°C° 0 mm 3 m/S 756 mmHg 51%
01:00 +20°C° 0 mm 3 m/S 756 mmHg 52%
02:00 +20°C° 0 mm 3 m/S 756 mmHg 54%
03:00 +19°C° 0 mm 3 m/S 756 mmHg 57%
04:00 +18°C° 0 mm 2 m/S 756 mmHg 59%
05:00 +19°C° 0 mm 2 m/S 756 mmHg 58%
06:00 +21°C° 0 mm 2 m/S 757 mmHg 57%
07:00 +23°C° 0 mm 2 m/S 757 mmHg 57%
08:00 +24°C° 0 mm 3 m/S 757 mmHg 52%
09:00 +26°C° 0 mm 4 m/S 757 mmHg 48%
10:00 +28°C° 0 mm 4 m/S 757 mmHg 43%
11:00 +29°C° 0 mm 5 m/S 757 mmHg 41%
12:00 +30°C° 0 mm 5 m/S 757 mmHg 38%
13:00 +32°C° 0 mm 6 m/S 757 mmHg 35%
14:00 +32°C° 0 mm 5 m/S 756 mmHg 36%
15:00 +32°C° 0 mm 5 m/S 756 mmHg 37%
16:00 +32°C° 0 mm 5 m/S 756 mmHg 38%
17:00 +30°C° 0 mm 4 m/S 756 mmHg 43%
18:00 +28°C° 0 mm 3 m/S 755 mmHg 49%
19:00 +27°C° 0 mm 3 m/S 755 mmHg 55%
20:00 +25°C° 0 mm 3 m/S 755 mmHg 58%
21:00 +24°C° 0 mm 2 m/S 756 mmHg 60%
22:00 +23°C° 0 mm 2 m/S 756 mmHg 63%
23:00 +21°C° 0 mm 2 m/S 756 mmHg 66%

übermorgen, 18 Mai, Dienstag

Zeit Temperatur Niederschläge Wind Luftdruck Luftfeuchtigkeit
00:00 +20°C° 0 mm 2 m/S 756 mmHg 69%
01:00 +20°C° 0 mm 1 m/S 756 mmHg 72%
02:00 +20°C° 0 mm 1 m/S 756 mmHg 72%
03:00 +19°C° 0 mm 1 m/S 756 mmHg 72%
04:00 +19°C° 0 mm 1 m/S 756 mmHg 73%
05:00 +19°C° 0 mm 2 m/S 757 mmHg 70%
06:00 +20°C° 0 mm 2 m/S 757 mmHg 67%
07:00 +21°C° 0 mm 2 m/S 757 mmHg 64%
08:00 +23°C° 0 mm 2 m/S 757 mmHg 59%
09:00 +25°C° 0 mm 2 m/S 757 mmHg 54%
10:00 +26°C° 0 mm 2 m/S 757 mmHg 50%
11:00 +27°C° 0 mm 2 m/S 757 mmHg 47%
12:00 +27°C° 0 mm 3 m/S 757 mmHg 45%
13:00 +28°C° 0 mm 3 m/S 757 mmHg 43%
14:00 +27°C° 0 mm 4 m/S 757 mmHg 43%
15:00 +27°C° 0 mm 4 m/S 757 mmHg 43%
16:00 +27°C° 0 mm 4 m/S 757 mmHg 43%
17:00 +26°C° 0 mm 4 m/S 757 mmHg 48%
18:00 +25°C° 0 mm 3 m/S 757 mmHg 53%
19:00 +22°C° 0 mm 3 m/S 757 mmHg 59%
20:00 +21°C° 0 mm 3 m/S 757 mmHg 62%
21:00 +19°C° 0 mm 4 m/S 758 mmHg 65%
22:00 +18°C° 0 mm 4 m/S 758 mmHg 68%
23:00 +17°C° 0 mm 4 m/S 758 mmHg 70%

19 Mai, Mittwoch

Zeit Temperatur Niederschläge Wind Luftdruck Luftfeuchtigkeit
00:00 +15°C° 0 mm 4 m/S 758 mmHg 72%
01:00 +14°C° 0 mm 4 m/S 758 mmHg 74%
02:00 +14°C° 0 mm 4 m/S 759 mmHg 76%
03:00 +13°C° 0 mm 4 m/S 759 mmHg 79%
04:00 +12°C° 0 mm 4 m/S 759 mmHg 81%
05:00 +13°C° 0 mm 4 m/S 759 mmHg 78%
06:00 +14°C° 0 mm 5 m/S 760 mmHg 75%
07:00 +15°C° 0 mm 5 m/S 760 mmHg 73%
08:00 +16°C° 0 mm 5 m/S 760 mmHg 67%
09:00 +19°C° 0 mm 5 m/S 760 mmHg 61%
10:00 +20°C° 0 mm 5 m/S 760 mmHg 55%
11:00 +21°C° 0 mm 5 m/S 759 mmHg 50%
12:00 +23°C° 0 mm 5 m/S 759 mmHg 45%
13:00 +25°C° 0 mm 5 m/S 759 mmHg 40%
14:00 +25°C° 0 mm 5 m/S 759 mmHg 39%
15:00 +26°C° 0 mm 4 m/S 759 mmHg 37%
16:00 +26°C° 0 mm 4 m/S 759 mmHg 36%
17:00 +25°C° 0 mm 3 m/S 759 mmHg 42%
18:00 +24°C° 0 mm 3 m/S 758 mmHg 49%
19:00 +23°C° 0 mm 2 m/S 758 mmHg 56%
20:00 +20°C° 0 mm 3 m/S 758 mmHg 57%
21:00 +19°C° 0 mm 3 m/S 758 mmHg 58%
22:00 +17°C° 0 mm 3 m/S 758 mmHg 59%
23:00 +17°C° 0 mm 3 m/S 758 mmHg 61%

20 Mai, Donnerstag

Zeit Temperatur Niederschläge Wind Luftdruck Luftfeuchtigkeit
00:00 +16°C° 0 mm 3 m/S 759 mmHg 62%
01:00 +16°C° 0 mm 3 m/S 759 mmHg 63%
02:00 +14°C° 0 mm 3 m/S 759 mmHg 64%
03:00 +13°C° 0 mm 3 m/S 759 mmHg 66%
04:00 +13°C° 0 mm 3 m/S 760 mmHg 67%
05:00 +14°C° 0 mm 3 m/S 760 mmHg 64%
06:00 +15°C° 0 mm 4 m/S 760 mmHg 62%
07:00 +17°C° 0 mm 4 m/S 760 mmHg 59%
08:00 +19°C° 0 mm 5 m/S 760 mmHg 54%
09:00 +21°C° 0 mm 5 m/S 760 mmHg 49%
10:00 +22°C° 0 mm 6 m/S 760 mmHg 44%
11:00 +23°C° 0 mm 6 m/S 759 mmHg 42%
12:00 +24°C° 0 mm 6 m/S 759 mmHg 39%
13:00 +26°C° 0 mm 6 m/S 759 mmHg 37%
14:00 +26°C° 0 mm 6 m/S 759 mmHg 37%
15:00 +26°C° 0 mm 6 m/S 758 mmHg 38%
16:00 +26°C° 0 mm 6 m/S 758 mmHg 39%
17:00 +25°C° 0 mm 5 m/S 758 mmHg 45%
18:00 +23°C° 0 mm 4 m/S 758 mmHg 51%
19:00 +21°C° 0 mm 3 m/S 758 mmHg 57%
20:00 +20°C° 0 mm 3 m/S 758 mmHg 59%
21:00 +18°C° 0 mm 3 m/S 758 mmHg 62%
22:00 +17°C° 0 mm 3 m/S 758 mmHg 65%
23:00 +17°C° 0 mm 3 m/S 758 mmHg 65%

21 Mai, Freitag

Zeit Temperatur Niederschläge Wind Luftdruck Luftfeuchtigkeit
00:00 +16°C° 0 mm 3 m/S 758 mmHg 65%
01:00 +16°C° 0 mm 3 m/S 758 mmHg 66%
02:00 +16°C° 0 mm 3 m/S 758 mmHg 69%
03:00 +14°C° 0 mm 3 m/S 758 mmHg 72%
04:00 +14°C° 0 mm 3 m/S 758 mmHg 75%
05:00 +16°C° 0 mm 3 m/S 759 mmHg 74%
06:00 +17°C° 0 mm 3 m/S 759 mmHg 72%
07:00 +18°C° 0 mm 3 m/S 759 mmHg 71%
08:00 +20°C° 0 mm 3 m/S 759 mmHg 65%
09:00 +21°C° 0 mm 3 m/S 759 mmHg 58%
10:00 +24°C° 0 mm 3 m/S 760 mmHg 51%
11:00 +25°C° 0 mm 3 m/S 759 mmHg 48%
12:00 +25°C° 0 mm 4 m/S 759 mmHg 44%
13:00 +26°C° 0 mm 4 m/S 759 mmHg 40%
14:00 +26°C° 0 mm 4 m/S 759 mmHg 40%
15:00 +27°C° 0 mm 4 m/S 759 mmHg 39%
16:00 +27°C° 0 mm 5 m/S 759 mmHg 38%
17:00 +26°C° 0 mm 4 m/S 759 mmHg 44%
18:00 +25°C° 0 mm 3 m/S 759 mmHg 50%
19:00 +24°C° 0 mm 1 m/S 759 mmHg 56%
20:00 +22°C° 0 mm 1 m/S 759 mmHg 57%
21:00 +21°C° 0 mm 1 m/S 759 mmHg 57%
22:00 +18°C° 0 mm 0 m/S 759 mmHg 58%
23:00 +17°C° 0 mm 0 m/S 759 mmHg 59%
Mehr zeigen

Wir brauchen deine Erlaubnis

Meteoprog und unser Service Anbieter werden persönliche Daten aufbewahren, so wie Cookies, Geräte Bezeichnung oder ähnliche Technologien von deinem Gerät und Prozess, so wie Persönliche Daten Inhalte und Werbungen, genauso wie social Media und den Verkehr zu analysieren.

  • Aufbewahrung und/oder Zugang zu deiner Geräte Informationen.

    Cookies, Geräte Bezeichnung oder andere Informationen, können aufbewahrt oder Zugang zu deinem Gerät erhalten, für den Grund, der oben angegeben wird.

  • Personalisierte Werbung und Inhalte, Messungen, Einblick in das Publikum und Produkt Entwicklung.

    Werbungen und Inhalte können personalisiert werden, basierend auf ein Profil. Mehr Daten können besser personalisierte Werbungen und Inhalte hinzufügen. Werbung und Inhalte können gezeigt und gemessen werden. Einblicke über das Publikum, welche die Werbung gesehen haben und den Inhalt, können abgeleitet werden. So wie Daten können genutzt werden, um es zu verbessern oder die Benutzer Erfahrung zu verbessern das System und die Software.

Wenn du “Ich stimme zu” klickst, erlaubst du uns, die Cookies zu benutzen die Geräte Bezeichnung, den Web oder ähnliche Technologien zu benutzen. Deine Settings, können in deinem Gerät bei deinem Browser geändert werden.

Für den bestimmten Zweck, berechtigten Interessen beruhen darauf, mehr als auf den Inhalt. Du kannst mehr darüber in unseren Privaten und Cookie Politik lesen.